sat.trackr.live / text

‹ back to catalog

COSMOS 2514 (751)

NORAD 41330 · 2016-008A

PAYLOAD ACTIVE UNKNOWN

§ Identity

Operator
Country
CIS
Launch date
2016-02-07
Launch site
PLMSC
Launch vehicle
Mass (kg)
RCS (m²)
11.29

Purposes: nav

External: N2YO · Heavens-Above · Gunter

§ Orbital elements

Epoch: 2026-09-09T18:02:55.855104Z

Period
675.73 min
Inclination
64.9666°
Eccentricity
0.0013679
Mean motion
2.13102550 rev/d
Perigee alt
19,095.0 km
Apogee alt
19,164.7 km
Semi-major
25,508.0 km
B*
0.0000e+0
RAAN
310.1005°
Arg perigee
209.5789°
Mean anomaly
150.4223°
Rev number
8,242

§ Raw data

COSMOS 2514 (751)1 41330U 16008A   26252.75203536 -.00000028  00000+0  00000+0 0  99932 41330  64.9666 310.1005 0013679 209.5789 150.4223  2.13102550 82428

JSON: /api/v1/satellites/41330 · /tle

For live sub-satellite position, see the globe view (requires WebGL).

§ Visibility from observer

Set your observer location to see the next 7 days of passes ≥ 10°. The values pass through the URL so the page stays shareable.

No JS? Fill the form by hand. The geolocation button needs JavaScript.